Year,Month,Day,Hour,Minute,Value (Times are PST for temperature in C)
2006,09,26,00,00,13.70
2006,09,26,00,01,13.70
2006,09,26,00,02,13.70
2006,09,26,00,03,13.70
2006,09,26,00,04,13.70
2006,09,26,00,05,13.70
2006,09,26,00,06,13.70
2006,09,26,00,07,13.70
2006,09,26,00,08,13.80
2006,09,26,00,09,13.80
2006,09,26,00,10,13.80
2006,09,26,00,11,13.80
2006,09,26,00,12,13.80
2006,09,26,00,13,13.80
2006,09,26,00,14,13.80
2006,09,26,00,15,13.80
2006,09,26,00,16,13.80
2006,09,26,00,17,13.70
2006,09,26,00,18,13.70
2006,09,26,00,19,13.70
2006,09,26,00,20,13.70
2006,09,26,00,21,13.70
2006,09,26,00,22,13.70
2006,09,26,00,23,13.70
2006,09,26,00,24,13.70
2006,09,26,00,25,13.70
2006,09,26,00,26,13.70
2006,09,26,00,27,13.70
2006,09,26,00,28,13.60
2006,09,26,00,29,13.60
2006,09,26,00,30,13.60
2006,09,26,00,31,13.60
2006,09,26,00,32,13.60
2006,09,26,00,33,13.60
2006,09,26,00,34,13.50
2006,09,26,00,35,13.50
2006,09,26,00,36,13.50
2006,09,26,00,37,13.50
2006,09,26,00,38,13.50
2006,09,26,00,39,13.50
2006,09,26,00,40,13.40
2006,09,26,00,41,13.40
2006,09,26,00,42,13.40
2006,09,26,00,43,13.40
2006,09,26,00,44,13.30
2006,09,26,00,45,13.30
2006,09,26,00,46,13.30
2006,09,26,00,47,13.30
2006,09,26,00,48,13.30
2006,09,26,00,49,13.30
2006,09,26,00,50,13.30
2006,09,26,00,51,13.30
2006,09,26,00,52,13.30
2006,09,26,00,53,13.30
2006,09,26,00,54,13.30
2006,09,26,00,55,13.30
2006,09,26,00,56,13.30
2006,09,26,00,57,13.30
2006,09,26,00,58,13.20
2006,09,26,00,59,13.20
2006,09,26,01,00,13.20
2006,09,26,01,01,13.20
2006,09,26,01,02,13.20
2006,09,26,01,03,13.20
2006,09,26,01,04,13.20
2006,09,26,01,05,13.20
2006,09,26,01,06,13.20
2006,09,26,01,07,13.20
2006,09,26,01,08,13.20
2006,09,26,01,09,13.10
2006,09,26,01,10,13.10
2006,09,26,01,11,13.20
2006,09,26,01,12,13.20
2006,09,26,01,13,13.20
2006,09,26,01,14,13.20
2006,09,26,01,15,13.20
2006,09,26,01,16,13.20
2006,09,26,01,17,13.20
2006,09,26,01,18,13.20
2006,09,26,01,19,13.20
2006,09,26,01,20,13.10
2006,09,26,01,21,13.10
2006,09,26,01,22,13.10
2006,09,26,01,23,13.10
2006,09,26,01,24,13.10
2006,09,26,01,25,13.10
2006,09,26,01,26,13.10
2006,09,26,01,27,13.00
2006,09,26,01,28,13.00
2006,09,26,01,29,13.00
2006,09,26,01,30,13.00
2006,09,26,01,31,13.00
2006,09,26,01,32,13.00
2006,09,26,01,33,13.00
2006,09,26,01,34,13.00
2006,09,26,01,35,13.00
2006,09,26,01,36,13.00
2006,09,26,01,37,12.90
2006,09,26,01,38,12.90
2006,09,26,01,39,12.90
2006,09,26,01,40,12.90
2006,09,26,01,41,12.90
2006,09,26,01,42,12.90
2006,09,26,01,43,12.90
2006,09,26,01,44,12.90
2006,09,26,01,45,12.90
2006,09,26,01,46,12.90
2006,09,26,01,47,12.90
2006,09,26,01,48,12.90
2006,09,26,01,49,12.90
2006,09,26,01,50,12.90
2006,09,26,01,51,12.90
2006,09,26,01,52,12.90
2006,09,26,01,53,12.90
2006,09,26,01,54,12.90
2006,09,26,01,55,12.90
2006,09,26,01,56,12.90
2006,09,26,01,57,12.90
2006,09,26,01,58,12.90
2006,09,26,01,59,12.90
2006,09,26,02,00,12.90
2006,09,26,02,01,12.90
2006,09,26,02,02,12.90
2006,09,26,02,03,12.90
2006,09,26,02,04,12.90
2006,09,26,02,05,12.90
2006,09,26,02,06,12.80
2006,09,26,02,07,12.80
2006,09,26,02,08,12.80
2006,09,26,02,09,12.80
2006,09,26,02,10,12.80
2006,09,26,02,11,12.80
2006,09,26,02,12,12.80
2006,09,26,02,13,12.80
2006,09,26,02,14,12.80
2006,09,26,02,15,12.80
2006,09,26,02,16,12.80
2006,09,26,02,17,12.80
2006,09,26,02,18,12.80
2006,09,26,02,19,12.80
2006,09,26,02,20,12.80
2006,09,26,02,21,12.80
2006,09,26,02,22,12.80
2006,09,26,02,23,12.80
2006,09,26,02,24,12.80
2006,09,26,02,25,12.80
2006,09,26,02,26,12.80
2006,09,26,02,27,12.80
2006,09,26,02,28,12.80
2006,09,26,02,29,12.80
2006,09,26,02,30,12.80
2006,09,26,02,31,12.80
2006,09,26,02,32,12.70
2006,09,26,02,33,12.70
2006,09,26,02,34,12.70
2006,09,26,02,35,12.70
2006,09,26,02,36,12.60
2006,09,26,02,37,12.60
2006,09,26,02,38,12.60
2006,09,26,02,39,12.60
2006,09,26,02,40,12.60
2006,09,26,02,41,12.60
2006,09,26,02,42,12.60
2006,09,26,02,43,12.50
2006,09,26,02,44,12.50
2006,09,26,02,45,12.50
2006,09,26,02,46,12.50
2006,09,26,02,47,12.50
2006,09,26,02,48,12.50
2006,09,26,02,49,12.40
2006,09,26,02,50,12.40
2006,09,26,02,51,12.40
2006,09,26,02,52,12.40
2006,09,26,02,53,12.30
2006,09,26,02,54,12.30
2006,09,26,02,55,12.30
2006,09,26,02,56,12.30
2006,09,26,02,57,12.30
2006,09,26,02,58,12.30
2006,09,26,02,59,12.30
2006,09,26,03,00,12.30
2006,09,26,03,01,12.30
2006,09,26,03,02,12.20
2006,09,26,03,03,12.20
2006,09,26,03,04,12.20
2006,09,26,03,05,12.20
2006,09,26,03,06,12.20
2006,09,26,03,07,12.20
2006,09,26,03,08,12.20
2006,09,26,03,09,12.20
2006,09,26,03,10,12.20
2006,09,26,03,11,12.20
2006,09,26,03,12,12.20
2006,09,26,03,13,12.20
2006,09,26,03,14,12.20
2006,09,26,03,15,12.20
2006,09,26,03,16,12.20
2006,09,26,03,17,12.20
2006,09,26,03,18,12.20
2006,09,26,03,19,12.20
2006,09,26,03,20,12.20
2006,09,26,03,21,12.20
2006,09,26,03,22,12.20
2006,09,26,03,23,12.20
2006,09,26,03,24,12.20
2006,09,26,03,25,12.20
2006,09,26,03,26,12.10
2006,09,26,03,27,12.10
2006,09,26,03,28,12.10
2006,09,26,03,29,12.10
2006,09,26,03,30,12.10
2006,09,26,03,31,12.10
2006,09,26,03,32,12.10
2006,09,26,03,33,12.10
2006,09,26,03,34,12.00
2006,09,26,03,35,12.00
2006,09,26,03,36,12.00
2006,09,26,03,37,12.00
2006,09,26,03,38,12.00
2006,09,26,03,39,12.00
2006,09,26,03,40,12.00
2006,09,26,03,41,12.00
2006,09,26,03,42,12.00
2006,09,26,03,43,12.00
2006,09,26,03,44,12.00
2006,09,26,03,45,12.00
2006,09,26,03,46,12.00
2006,09,26,03,47,12.00
2006,09,26,03,48,12.00
2006,09,26,03,49,12.00
2006,09,26,03,50,12.00
2006,09,26,03,51,12.00
2006,09,26,03,52,12.00
2006,09,26,03,53,12.00
2006,09,26,03,54,12.00
2006,09,26,03,55,12.00
2006,09,26,03,56,12.00
2006,09,26,03,57,12.00
2006,09,26,03,58,12.00
2006,09,26,03,59,12.00
2006,09,26,04,00,12.00
2006,09,26,04,01,12.10
2006,09,26,04,02,12.10
2006,09,26,04,03,12.10
2006,09,26,04,04,12.10
2006,09,26,04,05,12.10
2006,09,26,04,06,12.10
2006,09,26,04,07,12.10
2006,09,26,04,08,12.10
2006,09,26,04,09,12.10
2006,09,26,04,10,12.10
2006,09,26,04,11,12.10
2006,09,26,04,12,12.10
2006,09,26,04,13,12.10
2006,09,26,04,14,12.10
2006,09,26,04,15,12.10
2006,09,26,04,16,12.10
2006,09,26,04,17,12.10
2006,09,26,04,18,12.10
2006,09,26,04,19,12.10
2006,09,26,04,20,12.10
2006,09,26,04,21,12.10
2006,09,26,04,22,12.10
2006,09,26,04,23,12.10
2006,09,26,04,24,12.10
2006,09,26,04,25,12.10
2006,09,26,04,26,12.10
2006,09,26,04,27,12.10
2006,09,26,04,28,12.10
2006,09,26,04,29,12.10
2006,09,26,04,30,12.00
2006,09,26,04,31,12.00
2006,09,26,04,32,12.00
2006,09,26,04,33,12.00
2006,09,26,04,34,12.00
2006,09,26,04,35,12.00
2006,09,26,04,36,12.00
2006,09,26,04,37,12.00
2006,09,26,04,38,12.00
2006,09,26,04,39,12.00
2006,09,26,04,40,12.00
2006,09,26,04,41,12.00
2006,09,26,04,42,11.90
2006,09,26,04,43,11.90
2006,09,26,04,44,11.90
2006,09,26,04,45,11.90
2006,09,26,04,46,11.90
2006,09,26,04,47,11.90
2006,09,26,04,48,11.80
2006,09,26,04,49,11.80
2006,09,26,04,50,11.80
2006,09,26,04,51,11.80
2006,09,26,04,52,11.80
2006,09,26,04,53,11.80
2006,09,26,04,54,11.80
2006,09,26,04,55,11.80
2006,09,26,04,56,11.80
2006,09,26,04,57,11.70
2006,09,26,04,58,11.70
2006,09,26,04,59,11.70
2006,09,26,05,00,11.70
2006,09,26,05,01,11.70
2006,09,26,05,02,11.70
2006,09,26,05,03,11.70
2006,09,26,05,04,11.70
2006,09,26,05,05,11.70
2006,09,26,05,06,11.70
2006,09,26,05,07,11.70
2006,09,26,05,08,11.70
2006,09,26,05,09,11.70
2006,09,26,05,10,11.70
2006,09,26,05,11,11.70
2006,09,26,05,12,11.70
2006,09,26,05,13,11.60
2006,09,26,05,14,11.70
2006,09,26,05,15,11.70
2006,09,26,05,16,11.70
2006,09,26,05,17,11.70
2006,09,26,05,18,11.80
2006,09,26,05,19,11.80
2006,09,26,05,20,11.80
2006,09,26,05,21,11.80
2006,09,26,05,22,11.80
2006,09,26,05,23,11.80
2006,09,26,05,24,11.80
2006,09,26,05,25,11.80
2006,09,26,05,26,11.80
2006,09,26,05,27,11.80
2006,09,26,05,28,11.80
2006,09,26,05,29,11.80
2006,09,26,05,30,11.70
2006,09,26,05,31,11.70
2006,09,26,05,32,11.70
2006,09,26,05,33,11.70
2006,09,26,05,34,11.70
2006,09,26,05,35,11.60
2006,09,26,05,36,11.60
2006,09,26,05,37,11.60
2006,09,26,05,38,11.60
2006,09,26,05,39,11.70
2006,09,26,05,40,11.70
2006,09,26,05,41,11.70
2006,09,26,05,42,11.70
2006,09,26,05,43,11.70
2006,09,26,05,44,11.70
2006,09,26,05,45,11.70
2006,09,26,05,46,11.70
2006,09,26,05,47,11.70
2006,09,26,05,48,11.70
2006,09,26,05,49,11.70
2006,09,26,05,50,11.70
2006,09,26,05,51,11.70
2006,09,26,05,52,11.80
2006,09,26,05,53,11.80
2006,09,26,05,54,11.80
2006,09,26,05,55,11.80
2006,09,26,05,56,11.80
2006,09,26,05,57,11.80
2006,09,26,05,58,11.80
2006,09,26,05,59,11.80
2006,09,26,06,00,11.70
2006,09,26,06,01,11.70
2006,09,26,06,02,11.70
2006,09,26,06,03,11.70
2006,09,26,06,04,11.70
2006,09,26,06,05,11.70
2006,09,26,06,06,11.70
2006,09,26,06,07,11.60
2006,09,26,06,08,11.60
2006,09,26,06,09,11.60
2006,09,26,06,10,11.60
2006,09,26,06,11,11.60
2006,09,26,06,12,11.60
2006,09,26,06,13,11.60
2006,09,26,06,14,11.60
2006,09,26,06,15,11.60
2006,09,26,06,16,11.60
2006,09,26,06,17,11.60
2006,09,26,06,18,11.60
2006,09,26,06,19,11.60
2006,09,26,06,20,11.60
2006,09,26,06,21,11.60
2006,09,26,06,22,11.60
2006,09,26,06,23,11.60
2006,09,26,06,24,11.60
2006,09,26,06,25,11.60
2006,09,26,06,26,11.60
2006,09,26,06,27,11.60
2006,09,26,06,28,11.60
2006,09,26,06,29,11.60
2006,09,26,06,30,11.60
2006,09,26,06,31,11.60
2006,09,26,06,32,11.60
2006,09,26,06,33,11.60
2006,09,26,06,34,11.60
2006,09,26,06,35,11.60
2006,09,26,06,36,11.60
2006,09,26,06,37,11.60
2006,09,26,06,38,11.60
2006,09,26,06,39,11.60
2006,09,26,06,40,11.60
2006,09,26,06,41,11.60
2006,09,26,06,42,11.60
2006,09,26,06,43,11.60
2006,09,26,06,44,11.60
2006,09,26,06,45,11.60
2006,09,26,06,46,11.60
2006,09,26,06,47,11.60
2006,09,26,06,48,11.70
2006,09,26,06,49,11.70
2006,09,26,06,50,11.70
2006,09,26,06,51,11.70
2006,09,26,06,52,11.70
2006,09,26,06,53,11.70
2006,09,26,06,54,11.60
2006,09,26,06,55,11.60
2006,09,26,06,56,11.60
2006,09,26,06,57,11.60
2006,09,26,06,58,11.60
2006,09,26,06,59,11.60
2006,09,26,07,00,11.60
2006,09,26,07,01,11.60
2006,09,26,07,02,11.60
2006,09,26,07,03,11.60
2006,09,26,07,04,11.60
2006,09,26,07,05,11.60
2006,09,26,07,06,11.60
2006,09,26,07,07,11.60
2006,09,26,07,08,11.60
2006,09,26,07,09,11.60
2006,09,26,07,10,11.60
2006,09,26,07,11,11.60
2006,09,26,07,12,11.60
2006,09,26,07,13,11.60
2006,09,26,07,14,11.70
2006,09,26,07,15,11.70
2006,09,26,07,16,11.70
2006,09,26,07,17,11.70
2006,09,26,07,18,11.70
2006,09,26,07,19,11.70
2006,09,26,07,20,11.70
2006,09,26,07,21,11.70
2006,09,26,07,22,11.70
2006,09,26,07,23,11.70
2006,09,26,07,24,11.70
2006,09,26,07,25,11.70
2006,09,26,07,26,11.70
2006,09,26,07,27,11.70
2006,09,26,07,28,11.70
2006,09,26,07,29,11.70
2006,09,26,07,30,11.70
2006,09,26,07,31,11.70
2006,09,26,07,32,11.80
2006,09,26,07,33,11.80
2006,09,26,07,34,11.80
2006,09,26,07,35,11.80
2006,09,26,07,36,11.80
2006,09,26,07,37,11.90
2006,09,26,07,38,11.90
2006,09,26,07,39,11.90
2006,09,26,07,40,11.90
2006,09,26,07,41,12.00
2006,09,26,07,42,12.00
2006,09,26,07,43,12.00
2006,09,26,07,44,12.00
2006,09,26,07,45,12.00
2006,09,26,07,46,12.10
2006,09,26,07,47,12.10
2006,09,26,07,48,12.10
2006,09,26,07,49,12.10
2006,09,26,07,50,12.10
2006,09,26,07,51,12.10
2006,09,26,07,52,12.10
2006,09,26,07,53,12.10
2006,09,26,07,54,12.10
2006,09,26,07,55,12.20
2006,09,26,07,56,12.20
2006,09,26,07,57,12.20
2006,09,26,07,58,12.20
2006,09,26,07,59,12.20
2006,09,26,08,00,12.30
2006,09,26,08,01,12.30
2006,09,26,08,02,12.30
2006,09,26,08,03,12.30
2006,09,26,08,04,12.30
2006,09,26,08,05,12.30
2006,09,26,08,06,12.40
2006,09,26,08,07,12.40
2006,09,26,08,08,12.40
2006,09,26,08,09,12.40
2006,09,26,08,10,12.50
2006,09,26,08,11,12.50
2006,09,26,08,12,12.50
2006,09,26,08,13,12.60
2006,09,26,08,14,12.60
2006,09,26,08,15,12.60
2006,09,26,08,16,12.70
2006,09,26,08,17,12.70
2006,09,26,08,18,12.80
2006,09,26,08,19,12.80
2006,09,26,08,20,12.80
2006,09,26,08,21,12.90
2006,09,26,08,22,13.00
2006,09,26,08,23,13.00
2006,09,26,08,24,13.10
2006,09,26,08,25,13.10
2006,09,26,08,26,13.20
2006,09,26,08,27,13.30
2006,09,26,08,28,13.40
2006,09,26,08,29,13.50
2006,09,26,08,30,13.60
2006,09,26,08,31,13.70
2006,09,26,08,32,13.70
2006,09,26,08,33,13.60
2006,09,26,08,34,13.60
2006,09,26,08,35,13.50
2006,09,26,08,36,13.60
2006,09,26,08,37,13.60
2006,09,26,08,38,13.70
2006,09,26,08,39,13.70
2006,09,26,08,40,13.70
2006,09,26,08,41,13.80
2006,09,26,08,42,13.80
2006,09,26,08,43,13.90
2006,09,26,08,44,13.90
2006,09,26,08,45,14.00
2006,09,26,08,46,14.10
2006,09,26,08,47,14.20
2006,09,26,08,48,14.40
2006,09,26,08,49,14.50
2006,09,26,08,50,14.60
2006,09,26,08,51,14.60
2006,09,26,08,52,14.80
2006,09,26,08,53,14.80
2006,09,26,08,54,14.90
2006,09,26,08,55,15.00
2006,09,26,08,56,15.10
2006,09,26,08,57,15.30
2006,09,26,08,58,15.40
2006,09,26,08,59,15.50
2006,09,26,09,00,15.60
2006,09,26,09,01,15.70
2006,09,26,09,02,15.80
2006,09,26,09,03,15.90
2006,09,26,09,04,15.90
2006,09,26,09,05,16.10
2006,09,26,09,06,16.10
2006,09,26,09,07,16.20
2006,09,26,09,08,16.30
2006,09,26,09,09,16.30
2006,09,26,09,10,16.40
2006,09,26,09,11,16.40
2006,09,26,09,12,16.50
2006,09,26,09,13,16.60
2006,09,26,09,14,16.60
2006,09,26,09,15,16.70
2006,09,26,09,16,16.80
2006,09,26,09,17,16.90
2006,09,26,09,18,16.90
2006,09,26,09,19,17.00
2006,09,26,09,20,17.00
2006,09,26,09,21,17.00
2006,09,26,09,22,17.00
2006,09,26,09,23,17.10
2006,09,26,09,24,17.10
2006,09,26,09,25,17.10
2006,09,26,09,26,17.10
2006,09,26,09,27,17.20
2006,09,26,09,28,17.20
2006,09,26,09,29,17.30
2006,09,26,09,30,17.30
2006,09,26,09,31,17.30
2006,09,26,09,32,17.40
2006,09,26,09,33,17.50
2006,09,26,09,34,17.60
2006,09,26,09,35,17.70
2006,09,26,09,36,17.80
2006,09,26,09,37,17.90
2006,09,26,09,38,17.90
2006,09,26,09,39,18.00
2006,09,26,09,40,17.90
2006,09,26,09,41,17.90
2006,09,26,09,42,17.80
2006,09,26,09,43,17.80
2006,09,26,09,44,17.90
2006,09,26,09,45,17.90
2006,09,26,09,46,18.00
2006,09,26,09,47,18.10
2006,09,26,09,48,18.20
2006,09,26,09,49,18.30
2006,09,26,09,50,18.30
2006,09,26,09,51,18.40
2006,09,26,09,52,18.50
2006,09,26,09,53,18.50
2006,09,26,09,54,18.60
2006,09,26,09,55,18.60
2006,09,26,09,56,18.70
2006,09,26,09,57,18.80
2006,09,26,09,58,18.90
2006,09,26,09,59,18.90
2006,09,26,10,00,18.90
2006,09,26,10,01,18.90
2006,09,26,10,02,18.90
2006,09,26,10,03,18.90
2006,09,26,10,04,18.90
2006,09,26,10,05,18.90
2006,09,26,10,06,18.90
2006,09,26,10,07,18.90
2006,09,26,10,08,18.90
2006,09,26,10,09,18.90
2006,09,26,10,10,19.00
2006,09,26,10,11,19.10
2006,09,26,10,12,19.20
2006,09,26,10,13,19.30
2006,09,26,10,14,19.30
2006,09,26,10,15,19.40
2006,09,26,10,16,19.40
2006,09,26,10,17,19.50
2006,09,26,10,18,19.50
2006,09,26,10,19,19.50
2006,09,26,10,20,19.60
2006,09,26,10,21,19.60
2006,09,26,10,22,19.60
2006,09,26,10,23,19.60
2006,09,26,10,24,19.50
2006,09,26,10,25,19.50
2006,09,26,10,26,19.50
2006,09,26,10,27,19.40
2006,09,26,10,28,19.50
2006,09,26,10,29,19.60
2006,09,26,10,30,19.60
2006,09,26,10,31,19.60
2006,09,26,10,32,19.60
2006,09,26,10,33,19.60
2006,09,26,10,34,19.50
2006,09,26,10,35,19.60
2006,09,26,10,36,19.60
2006,09,26,10,37,19.60
2006,09,26,10,38,19.70
2006,09,26,10,39,19.70
2006,09,26,10,40,19.70
2006,09,26,10,41,19.80
2006,09,26,10,42,19.80
2006,09,26,10,43,19.90
2006,09,26,10,44,19.90
2006,09,26,10,45,19.90
2006,09,26,10,46,19.90
2006,09,26,10,47,20.00
2006,09,26,10,48,20.00
2006,09,26,10,49,19.90
2006,09,26,10,50,19.90
2006,09,26,10,51,19.80
2006,09,26,10,52,19.80
2006,09,26,10,53,19.80
2006,09,26,10,54,19.80
2006,09,26,10,55,19.70
2006,09,26,10,56,19.70
2006,09,26,10,57,19.80
2006,09,26,10,58,19.90
2006,09,26,10,59,19.90
2006,09,26,11,00,19.90
2006,09,26,11,01,19.90
2006,09,26,11,02,19.90
2006,09,26,11,03,20.00
2006,09,26,11,04,19.90
2006,09,26,11,05,19.90
2006,09,26,11,06,19.90
2006,09,26,11,07,19.90
2006,09,26,11,08,19.90
2006,09,26,11,09,19.90
2006,09,26,11,10,19.90
2006,09,26,11,11,19.90
2006,09,26,11,12,20.00
2006,09,26,11,13,20.20
2006,09,26,11,14,20.20
2006,09,26,11,15,20.20
2006,09,26,11,16,20.20
2006,09,26,11,17,20.20
2006,09,26,11,18,20.30
2006,09,26,11,19,20.50
2006,09,26,11,20,20.50
2006,09,26,11,21,20.60
2006,09,26,11,22,20.60
2006,09,26,11,23,20.70
2006,09,26,11,24,20.70
2006,09,26,11,25,20.70
2006,09,26,11,26,20.60
2006,09,26,11,27,20.60
2006,09,26,11,28,20.60
2006,09,26,11,29,20.60
2006,09,26,11,30,20.60
2006,09,26,11,31,20.70
2006,09,26,11,32,20.80
2006,09,26,11,33,20.80
2006,09,26,11,34,20.90
2006,09,26,11,35,21.00
2006,09,26,11,36,21.00
2006,09,26,11,37,21.00
2006,09,26,11,38,21.00
2006,09,26,11,39,21.00
2006,09,26,11,40,21.00
2006,09,26,11,41,21.10
2006,09,26,11,42,21.10
2006,09,26,11,43,21.10
2006,09,26,11,44,21.10
2006,09,26,11,45,21.10
2006,09,26,11,46,21.20
2006,09,26,11,47,21.20
2006,09,26,11,48,21.30
2006,09,26,11,49,21.30
2006,09,26,11,50,21.30
2006,09,26,11,51,21.20
2006,09,26,11,52,21.30
2006,09,26,11,53,21.30
2006,09,26,11,54,21.30
2006,09,26,11,55,21.30
2006,09,26,11,56,21.30
2006,09,26,11,57,21.30
2006,09,26,11,58,21.40
2006,09,26,11,59,21.40
2006,09,26,12,00,21.50
2006,09,26,12,01,21.60
2006,09,26,12,02,21.60
2006,09,26,12,03,21.60
2006,09,26,12,04,21.60
2006,09,26,12,05,21.60
2006,09,26,12,06,21.50
2006,09,26,12,07,21.40
2006,09,26,12,08,21.20
2006,09,26,12,09,21.20
2006,09,26,12,10,21.10
2006,09,26,12,11,21.00
2006,09,26,12,12,21.00
2006,09,26,12,13,21.10
2006,09,26,12,14,21.10
2006,09,26,12,15,21.10
2006,09,26,12,16,21.10
2006,09,26,12,17,21.20
2006,09,26,12,18,21.20
2006,09,26,12,19,21.20
2006,09,26,12,20,21.30
2006,09,26,12,21,21.30
2006,09,26,12,22,21.30
2006,09,26,12,23,21.40
2006,09,26,12,24,21.40
2006,09,26,12,25,21.40
2006,09,26,12,26,21.50
2006,09,26,12,27,21.60
2006,09,26,12,28,21.60
2006,09,26,12,29,21.50
2006,09,26,12,30,21.40
2006,09,26,12,31,21.40
2006,09,26,12,32,21.40
2006,09,26,12,33,21.40
2006,09,26,12,34,21.40
2006,09,26,12,35,21.30
2006,09,26,12,36,21.30
2006,09,26,12,37,21.30
2006,09,26,12,38,21.30
2006,09,26,12,39,21.30
2006,09,26,12,40,21.30
2006,09,26,12,41,21.30
2006,09,26,12,42,21.40
2006,09,26,12,43,21.50
2006,09,26,12,44,21.60
2006,09,26,12,45,21.60
2006,09,26,12,46,21.60
2006,09,26,12,47,21.60
2006,09,26,12,48,21.60
2006,09,26,12,49,21.70
2006,09,26,12,50,21.80
2006,09,26,12,51,21.80
2006,09,26,12,52,22.00
2006,09,26,12,53,22.00
2006,09,26,12,54,22.10
2006,09,26,12,55,22.10
2006,09,26,12,56,22.10
2006,09,26,12,57,22.10
2006,09,26,12,58,22.00
2006,09,26,12,59,22.00
2006,09,26,13,00,21.90
2006,09,26,13,01,21.90
2006,09,26,13,02,21.80
2006,09,26,13,03,21.80
2006,09,26,13,04,21.80
2006,09,26,13,05,21.90
2006,09,26,13,06,21.90
2006,09,26,13,07,21.90
2006,09,26,13,08,21.90
2006,09,26,13,09,21.90
2006,09,26,13,10,21.90
2006,09,26,13,11,21.90
2006,09,26,13,12,21.90
2006,09,26,13,13,21.90
2006,09,26,13,14,21.90
2006,09,26,13,15,21.90
2006,09,26,13,16,22.00
2006,09,26,13,17,22.00
2006,09,26,13,18,22.00
2006,09,26,13,19,22.00
2006,09,26,13,20,22.00
2006,09,26,13,21,22.00
2006,09,26,13,22,22.10
2006,09,26,13,23,22.10
2006,09,26,13,24,22.20
2006,09,26,13,25,22.30
2006,09,26,13,26,22.30
2006,09,26,13,27,22.30
2006,09,26,13,28,22.20
2006,09,26,13,29,22.30
2006,09,26,13,30,22.30
2006,09,26,13,31,22.20
2006,09,26,13,32,22.20
2006,09,26,13,33,22.10
2006,09,26,13,34,22.00
2006,09,26,13,35,22.00
2006,09,26,13,36,22.00
2006,09,26,13,37,22.00
2006,09,26,13,38,22.00
2006,09,26,13,39,22.10
2006,09,26,13,40,22.10
2006,09,26,13,41,22.20
2006,09,26,13,42,22.30
2006,09,26,13,43,22.30
2006,09,26,13,44,22.30
2006,09,26,13,45,22.40
2006,09,26,13,46,22.50
2006,09,26,13,47,22.50
2006,09,26,13,48,22.50
2006,09,26,13,49,22.60
2006,09,26,13,50,22.60
2006,09,26,13,51,22.60
2006,09,26,13,52,22.60
2006,09,26,13,53,22.60
2006,09,26,13,54,22.70
2006,09,26,13,55,22.70
2006,09,26,13,56,22.70
2006,09,26,13,57,22.70
2006,09,26,13,58,22.80
2006,09,26,13,59,22.90
2006,09,26,14,00,22.90
2006,09,26,14,01,22.90
2006,09,26,14,02,22.90
2006,09,26,14,03,22.90
2006,09,26,14,04,22.90
2006,09,26,14,05,22.90
2006,09,26,14,06,22.70
2006,09,26,14,07,22.60
2006,09,26,14,08,22.50
2006,09,26,14,09,22.50
2006,09,26,14,10,22.60
2006,09,26,14,11,22.60
2006,09,26,14,12,22.60
2006,09,26,14,13,22.40
2006,09,26,14,14,22.10
2006,09,26,14,15,21.60
2006,09,26,14,16,21.00
2006,09,26,14,17,20.40
2006,09,26,14,18,20.10
2006,09,26,14,19,19.90
2006,09,26,14,20,19.80
2006,09,26,14,21,19.80
2006,09,26,14,22,19.70
2006,09,26,14,23,19.70
2006,09,26,14,24,19.70
2006,09,26,14,25,19.80
2006,09,26,14,26,19.90
2006,09,26,14,27,19.90
2006,09,26,14,28,20.10
2006,09,26,14,29,20.20
2006,09,26,14,30,20.40
2006,09,26,14,31,20.50
2006,09,26,14,32,20.60
2006,09,26,14,33,20.60
2006,09,26,14,34,20.70
2006,09,26,14,35,20.80
2006,09,26,14,36,20.90
2006,09,26,14,37,21.00
2006,09,26,14,38,21.10
2006,09,26,14,39,21.20
2006,09,26,14,40,21.20
2006,09,26,14,41,21.20
2006,09,26,14,42,21.20
2006,09,26,14,43,21.10
2006,09,26,14,44,21.10
2006,09,26,14,45,21.00
2006,09,26,14,46,20.90
2006,09,26,14,47,20.80
2006,09,26,14,48,20.60
2006,09,26,14,49,20.50
2006,09,26,14,50,20.50
2006,09,26,14,51,20.40
2006,09,26,14,52,20.40
2006,09,26,14,53,20.40
2006,09,26,14,54,20.50
2006,09,26,14,55,20.60
2006,09,26,14,56,20.70
2006,09,26,14,57,20.70
2006,09,26,14,58,20.70
2006,09,26,14,59,20.80
2006,09,26,15,00,20.80
2006,09,26,15,01,20.90
2006,09,26,15,02,21.00
2006,09,26,15,03,21.10
2006,09,26,15,04,21.20
2006,09,26,15,05,21.30
2006,09,26,15,06,21.30
2006,09,26,15,07,21.40
2006,09,26,15,08,21.40
2006,09,26,15,09,21.40
2006,09,26,15,10,21.30
2006,09,26,15,11,21.40
2006,09,26,15,12,21.40
2006,09,26,15,13,21.40
2006,09,26,15,14,21.40
2006,09,26,15,15,21.40
2006,09,26,15,16,21.40
2006,09,26,15,17,21.30
2006,09,26,15,18,21.30
2006,09,26,15,19,21.40
2006,09,26,15,20,21.50
2006,09,26,15,21,21.60
2006,09,26,15,22,21.60
2006,09,26,15,23,21.60
2006,09,26,15,24,21.60
2006,09,26,15,25,21.60
2006,09,26,15,26,21.70
2006,09,26,15,27,21.80
2006,09,26,15,28,21.90
2006,09,26,15,29,21.90
2006,09,26,15,30,21.90
2006,09,26,15,31,21.90
2006,09,26,15,32,21.90
2006,09,26,15,33,21.90
2006,09,26,15,34,21.90
2006,09,26,15,35,21.90
2006,09,26,15,36,21.90
2006,09,26,15,37,21.80
2006,09,26,15,38,21.80
2006,09,26,15,39,21.70
2006,09,26,15,40,21.80
2006,09,26,15,41,21.80
2006,09,26,15,42,21.90
2006,09,26,15,43,21.90
2006,09,26,15,44,21.90
2006,09,26,15,45,22.00
2006,09,26,15,46,22.10
2006,09,26,15,47,22.10
2006,09,26,15,48,22.00
2006,09,26,15,49,21.80
2006,09,26,15,50,21.70
2006,09,26,15,51,21.60
2006,09,26,15,52,21.50
2006,09,26,15,53,21.40
2006,09,26,15,54,21.30
2006,09,26,15,55,21.30
2006,09,26,15,56,21.30
2006,09,26,15,57,21.40
2006,09,26,15,58,21.30
2006,09,26,15,59,21.40
2006,09,26,16,00,21.40
2006,09,26,16,01,21.50
2006,09,26,16,02,21.60
2006,09,26,16,03,21.60
2006,09,26,16,04,21.60
2006,09,26,16,05,21.60
2006,09,26,16,06,21.60
2006,09,26,16,07,21.70
2006,09,26,16,08,21.70
2006,09,26,16,09,21.70
2006,09,26,16,10,21.70
2006,09,26,16,11,21.70
2006,09,26,16,12,21.70
2006,09,26,16,13,21.80
2006,09,26,16,14,21.80
2006,09,26,16,15,21.90
2006,09,26,16,16,22.00
2006,09,26,16,17,22.00
2006,09,26,16,18,22.00
2006,09,26,16,19,21.90
2006,09,26,16,20,21.90
2006,09,26,16,21,22.00
2006,09,26,16,22,22.00
2006,09,26,16,23,22.00
2006,09,26,16,24,22.00
2006,09,26,16,25,22.00
2006,09,26,16,26,22.00
2006,09,26,16,27,22.10
2006,09,26,16,28,22.10
2006,09,26,16,29,22.20
2006,09,26,16,30,22.30
2006,09,26,16,31,22.30
2006,09,26,16,32,22.30
2006,09,26,16,33,22.30
2006,09,26,16,34,22.50
2006,09,26,16,35,22.60
2006,09,26,16,36,22.60
2006,09,26,16,37,22.70
2006,09,26,16,38,22.60
2006,09,26,16,39,22.60
2006,09,26,16,40,22.60
2006,09,26,16,41,22.60
2006,09,26,16,42,22.50
2006,09,26,16,43,22.40
2006,09,26,16,44,22.20
2006,09,26,16,45,22.00
2006,09,26,16,46,21.70
2006,09,26,16,47,21.40
2006,09,26,16,48,21.10
2006,09,26,16,49,20.80
2006,09,26,16,50,20.50
2006,09,26,16,51,20.30
2006,09,26,16,52,20.20
2006,09,26,16,53,20.20
2006,09,26,16,54,20.20
2006,09,26,16,55,20.20
2006,09,26,16,56,20.30
2006,09,26,16,57,20.30
2006,09,26,16,58,20.30
2006,09,26,16,59,20.30
2006,09,26,17,00,20.20
2006,09,26,17,01,20.30
2006,09,26,17,02,20.30
2006,09,26,17,03,20.30
2006,09,26,17,04,20.40
2006,09,26,17,05,20.40
2006,09,26,17,06,20.40
2006,09,26,17,07,20.50
2006,09,26,17,08,20.50
2006,09,26,17,09,20.50
2006,09,26,17,10,20.60
2006,09,26,17,11,20.60
2006,09,26,17,12,20.60
2006,09,26,17,13,20.60
2006,09,26,17,14,20.60
2006,09,26,17,15,20.60
2006,09,26,17,16,20.70
2006,09,26,17,17,20.70
2006,09,26,17,18,20.60
2006,09,26,17,19,20.60